Time,TemperatureF,DewpointF,PressureIn,WindDirection,WindDirectionDegrees,WindSpeedMPH,WindSpeedGustMPH,Humidity,HourlyPrecipIn,Conditions,Clouds,dailyrainin,SoftwareType,DateUTC
2013-07-03 00:02:00,57.0,49.0,-100.00,West,275,0.0,1.0,76,0.00,,,-99.99,,2013-07-03 05:02:00,
2013-07-03 00:11:00,57.0,49.0,-100.00,West,275,0.0,1.0,76,0.00,,,-99.99,,2013-07-03 05:11:00,
2013-07-03 00:48:00,54.0,49.0,-100.00,West,260,1.0,2.0,81,0.00,,,-99.99,,2013-07-03 05:48:00,
2013-07-03 01:01:00,54.0,49.0,-100.00,West,260,1.0,2.0,81,0.00,,,-99.99,,2013-07-03 06:01:00,
2013-07-03 01:06:00,54.0,49.0,-100.00,West,260,1.0,2.0,81,0.00,,,-99.99,,2013-07-03 06:06:00,
2013-07-03 01:14:00,54.0,49.0,-100.00,West,260,1.0,2.0,81,0.00,,,-99.99,,2013-07-03 06:14:00,
2013-07-03 01:50:00,55.0,51.0,-100.00,NE,45,1.0,2.0,86,0.00,,,-99.99,,2013-07-03 06:50:00,
2013-07-03 01:58:00,55.0,51.0,-100.00,NE,45,1.0,2.0,86,0.00,,,-99.99,,2013-07-03 06:58:00,
2013-07-03 02:05:00,55.0,51.0,-100.00,NE,45,1.0,2.0,86,0.00,,,-99.99,,2013-07-03 07:05:00,
2013-07-03 02:14:00,56.0,52.0,-100.00,NE,35,1.0,1.0,86,0.00,,,-99.99,,2013-07-03 07:14:00,
2013-07-03 02:15:00,55.0,51.0,-100.00,NE,45,1.0,2.0,86,0.00,,,-99.99,,2013-07-03 07:15:00,
2013-07-03 02:40:00,56.0,52.0,-100.00,NE,35,1.0,1.0,86,0.00,,,-99.99,,2013-07-03 07:40:00,
2013-07-03 02:48:00,56.0,52.0,-100.00,NE,35,1.0,1.0,86,0.00,,,-99.99,,2013-07-03 07:48:00,
2013-07-03 03:08:00,56.0,52.0,-100.00,NE,35,1.0,1.0,86,0.00,,,-99.99,,2013-07-03 08:08:00,
2013-07-03 03:15:00,56.0,52.0,-100.00,NNE,20,0.0,2.0,85,0.00,,,-99.99,,2013-07-03 08:15:00,
2013-07-03 03:57:00,56.0,52.0,-100.00,NNE,20,0.0,2.0,85,0.00,,,-99.99,,2013-07-03 08:57:00,
2013-07-03 04:15:00,57.0,51.0,-100.00,NE,40,2.0,3.0,81,0.00,,,-99.99,,2013-07-03 09:15:00,
2013-07-03 04:47:00,57.0,51.0,-100.00,NE,40,2.0,3.0,81,0.00,,,-99.99,,2013-07-03 09:47:00,
2013-07-03 04:57:00,57.0,51.0,-100.00,NE,40,2.0,3.0,81,0.00,,,-99.99,,2013-07-03 09:57:00,
2013-07-03 05:05:00,57.0,51.0,-100.00,NE,40,2.0,3.0,81,0.00,,,-99.99,,2013-07-03 10:05:00,
2013-07-03 05:15:00,57.0,52.0,-100.00,NW,325,1.0,2.0,84,0.00,,,-99.99,,2013-07-03 10:15:00,
2013-07-03 05:47:00,57.0,52.0,-100.00,NW,325,1.0,2.0,84,0.00,,,-99.99,,2013-07-03 10:47:00,
2013-07-03 06:06:00,57.0,52.0,-100.00,NW,325,1.0,2.0,84,0.00,,,-99.99,,2013-07-03 11:06:00,
2013-07-03 06:16:00,58.0,51.0,-100.00,North,10,3.0,5.0,78,0.00,,,-99.99,,2013-07-03 11:16:00,
2013-07-03 06:45:00,58.0,51.0,-100.00,North,10,3.0,5.0,78,0.00,,,-99.99,,2013-07-03 11:45:00,
2013-07-03 07:08:00,58.0,51.0,-100.00,North,10,3.0,5.0,78,0.00,,,-99.99,,2013-07-03 12:08:00,
2013-07-03 07:15:00,59.0,52.0,-100.00,NNE,20,2.0,4.0,76,0.00,,,-99.99,,2013-07-03 12:15:00,
2013-07-03 07:58:00,59.0,52.0,-100.00,NNE,20,2.0,4.0,76,0.00,,,-99.99,,2013-07-03 12:58:00,
2013-07-03 08:07:00,59.0,52.0,-100.00,NNE,20,2.0,4.0,76,0.00,,,-99.99,,2013-07-03 13:07:00,
2013-07-03 08:15:00,60.0,51.0,-100.00,NNE,20,4.0,6.0,72,0.00,,,-99.99,,2013-07-03 13:15:00,
2013-07-03 08:55:00,60.0,51.0,-100.00,NNE,20,4.0,6.0,72,0.00,,,-99.99,,2013-07-03 13:55:00,
2013-07-03 09:06:00,60.0,51.0,-100.00,NNE,20,4.0,6.0,72,0.00,,,-99.99,,2013-07-03 14:06:00,
2013-07-03 09:48:00,64.0,52.0,-100.00,NNE,30,6.0,8.0,64,0.00,,,-99.99,,2013-07-03 14:48:00,
2013-07-03 09:55:00,64.0,52.0,-100.00,NNE,30,6.0,8.0,64,0.00,,,-99.99,,2013-07-03 14:55:00,
2013-07-03 10:05:00,64.0,52.0,-100.00,NNE,30,6.0,8.0,64,0.00,,,-99.99,,2013-07-03 15:05:00,
2013-07-03 10:14:00,64.0,52.0,-100.00,NNE,30,6.0,8.0,64,0.00,,,-99.99,,2013-07-03 15:14:00,
2013-07-03 10:15:00,64.0,56.0,-100.00,ENE,65,7.0,9.0,76,0.00,,,-99.99,,2013-07-03 15:15:00,
2013-07-03 10:49:00,64.0,56.0,-100.00,ENE,65,7.0,9.0,76,0.00,,,-99.99,,2013-07-03 15:49:00,
2013-07-03 10:57:00,64.0,56.0,-100.00,ENE,65,7.0,9.0,76,0.00,,,-99.99,,2013-07-03 15:57:00,
2013-07-03 11:07:00,64.0,56.0,-100.00,ENE,65,7.0,9.0,76,0.00,,,-99.99,,2013-07-03 16:07:00,
2013-07-03 11:40:00,64.0,59.0,-100.00,ENE,75,5.0,9.0,82,0.00,,,-99.99,,2013-07-03 16:40:00,
2013-07-03 11:47:00,64.0,59.0,-100.00,ENE,75,5.0,9.0,82,0.00,,,-99.99,,2013-07-03 16:47:00,
2013-07-03 12:15:00,66.0,57.0,-100.00,ENE,60,4.0,10.0,74,0.00,,,-99.99,,2013-07-03 17:15:00,
2013-07-03 12:50:00,66.0,57.0,-100.00,ENE,60,4.0,10.0,74,0.00,,,-99.99,,2013-07-03 17:50:00,
2013-07-03 12:56:00,66.0,57.0,-100.00,ENE,60,4.0,10.0,74,0.00,,,-99.99,,2013-07-03 17:56:00,
2013-07-03 13:07:00,66.0,57.0,-100.00,ENE,60,4.0,10.0,74,0.00,,,-99.99,,2013-07-03 18:07:00,
2013-07-03 13:47:00,67.0,58.0,-100.00,NNE,20,5.0,10.0,73,0.00,,,-99.99,,2013-07-03 18:47:00,
2013-07-03 13:59:00,67.0,58.0,-100.00,NNE,20,5.0,10.0,73,0.00,,,-99.99,,2013-07-03 18:59:00,
2013-07-03 14:04:00,67.0,58.0,-100.00,NNE,20,5.0,10.0,73,0.00,,,-99.99,,2013-07-03 19:04:00,
2013-07-03 14:15:00,67.0,58.0,-100.00,NNE,20,5.0,10.0,73,0.00,,,-99.99,,2013-07-03 19:15:00,
2013-07-03 14:49:00,69.0,59.0,-100.00,NNW,335,4.0,7.0,69,0.00,,,-99.99,,2013-07-03 19:49:00,
2013-07-03 14:57:00,69.0,59.0,-100.00,NNW,335,4.0,7.0,69,0.00,,,-99.99,,2013-07-03 19:57:00,
2013-07-03 15:04:00,69.0,59.0,-100.00,NNW,335,4.0,7.0,69,0.00,,,-99.99,,2013-07-03 20:04:00,
2013-07-03 15:14:00,69.0,59.0,-100.00,NNW,335,4.0,7.0,69,0.00,,,-99.99,,2013-07-03 20:14:00,
2013-07-03 15:47:00,71.0,58.0,-100.00,NE,50,1.0,6.0,64,0.00,,,-99.99,,2013-07-03 20:47:00,
2013-07-03 16:06:00,71.0,58.0,-100.00,NE,50,1.0,6.0,64,0.00,,,-99.99,,2013-07-03 21:06:00,
2013-07-03 16:13:00,71.0,58.0,-100.00,NE,50,1.0,6.0,64,0.00,,,-99.99,,2013-07-03 21:13:00,
2013-07-03 16:45:00,72.0,58.0,-100.00,WNW,285,2.0,3.0,63,0.00,,,-99.99,,2013-07-03 21:45:00,
2013-07-03 16:55:00,72.0,58.0,-100.00,WNW,285,2.0,3.0,63,0.00,,,-99.99,,2013-07-03 21:55:00,
2013-07-03 17:05:00,72.0,58.0,-100.00,WNW,285,2.0,3.0,63,0.00,,,-99.99,,2013-07-03 22:05:00,
2013-07-03 17:14:00,72.0,58.0,-100.00,WNW,285,2.0,3.0,63,0.00,,,-99.99,,2013-07-03 22:14:00,
2013-07-03 17:47:00,70.0,58.0,-100.00,NE,50,1.0,4.0,66,0.00,,,-99.99,,2013-07-03 22:47:00,
2013-07-03 17:57:00,70.0,58.0,-100.00,NE,50,1.0,4.0,66,0.00,,,-99.99,,2013-07-03 22:57:00,
2013-07-03 18:05:00,70.0,58.0,-100.00,NE,50,1.0,4.0,66,0.00,,,-99.99,,2013-07-03 23:05:00,
2013-07-03 18:46:00,71.0,59.0,-100.00,NE,40,2.0,4.0,67,0.00,,,-99.99,,2013-07-03 23:46:00,
2013-07-03 18:56:00,71.0,59.0,-100.00,NE,40,2.0,4.0,67,0.00,,,-99.99,,2013-07-03 23:56:00,
2013-07-03 19:03:00,71.0,59.0,-100.00,NE,40,2.0,4.0,67,0.00,,,-99.99,,2013-07-04 00:03:00,
2013-07-03 19:15:00,72.0,58.0,-100.00,North,5,1.0,4.0,61,0.00,,,-99.99,,2013-07-04 00:15:00,
2013-07-03 19:50:00,72.0,58.0,-100.00,North,5,1.0,4.0,61,0.00,,,-99.99,,2013-07-04 00:50:00,
2013-07-03 19:57:00,72.0,58.0,-100.00,North,5,1.0,4.0,61,0.00,,,-99.99,,2013-07-04 00:57:00,
2013-07-03 20:03:00,72.0,58.0,-100.00,North,5,1.0,4.0,61,0.00,,,-99.99,,2013-07-04 01:03:00,
2013-07-03 20:47:00,70.0,59.0,-100.00,WSW,240,0.0,4.0,68,0.00,,,-99.99,,2013-07-04 01:47:00,
2013-07-03 21:06:00,70.0,59.0,-100.00,WSW,240,0.0,4.0,68,0.00,,,-99.99,,2013-07-04 02:06:00,
2013-07-03 21:14:00,70.0,59.0,-100.00,WSW,240,0.0,4.0,68,0.00,,,-99.99,,2013-07-04 02:14:00,
2013-07-03 21:49:00,66.0,62.0,-100.00,SSW,210,1.0,3.0,86,0.00,,,-99.99,,2013-07-04 02:49:00,
2013-07-03 21:57:00,66.0,62.0,-100.00,SSW,210,1.0,3.0,86,0.00,,,-99.99,,2013-07-04 02:57:00,
2013-07-03 22:05:00,66.0,62.0,-100.00,SSW,210,1.0,3.0,86,0.00,,,-99.99,,2013-07-04 03:05:00,
2013-07-03 22:14:00,66.0,62.0,-100.00,SSW,210,1.0,3.0,86,0.00,,,-99.99,,2013-07-04 03:14:00,
2013-07-03 22:46:00,64.0,61.0,-100.00,West,280,1.0,2.0,89,0.00,,,-99.99,,2013-07-04 03:46:00,
2013-07-03 22:57:00,64.0,61.0,-100.00,West,280,1.0,2.0,89,0.00,,,-99.99,,2013-07-04 03:57:00,
2013-07-03 23:02:00,64.0,61.0,-100.00,West,280,1.0,2.0,89,0.00,,,-99.99,,2013-07-04 04:02:00,
2013-07-03 23:11:00,64.0,61.0,-100.00,West,280,1.0,2.0,89,0.00,,,-99.99,,2013-07-04 04:11:00,
2013-07-03 23:43:00,64.0,60.0,-100.00,SSW,195,2.0,4.0,89,0.00,,,-99.99,,2013-07-04 04:43:00,
2013-07-03 23:52:00,64.0,60.0,-100.00,SSW,195,2.0,4.0,89,0.00,,,-99.99,,2013-07-04 04:52:00,